Zurück zum Katalog

YAOGAN-39 04A

AktivMilitärVLEO
NORAD 58141·PAYLOAD·🇨🇳 China

Gestartet Oct 23, 2023 von Xichang Satellite Launch Center

Loading…

Nächste Überflüge (nächste 24 Stunden)

TLE

AktuellSource: Space-Track

Epoche: Sep 14, 2026, 09:12 UTC

1 58141U 23163A   26257.38370759  .00006691  00000-0  27889-3 0  9997
2 58141  34.9996 143.7840 0003621  87.1462 272.9667 15.23014469161189

Verfolge YAOGAN-39 04A in Echtzeit mit AllMySat

Download on the App Store